Terminal Aerodrome Forecast
Issued by NWS

Home | Current Version | Previous Version | Text Only | Print | Product List | Glossary On
Versions: 1 2 3 4 5 6 7 8 9 10 11 12 13 14 15 16 17 18 19 20 21 22 23 24 25 26 27 28 29 30 31 32
000
FTPA31 PHFO 011700
TAFLIH
TAF
PHLI 011731Z 0118/0218 26006KT P6SM SKC
     FM011900 12008KT P6SM FEW030 SCT050
     FM012200 17008KT P6SM SCT030 BKN050
     FM020600 26006KT P6SM SCT050=

USA.gov is the U.S. government's official web portal to all federal, state and local government web resources and services.